• en Suisse
  • Liste des pays
  • À 7 jours
  • Température de l'eau
  • Carte satellitaire
  • Carte météo
  • Widgets météo
  • user-avatar
    Se connecter

    Météo par heure à Cambridge

    Ce jour, 24 Septembre, Lundi

    Heure Température Précipitation Vent Pression Humidité
    00:00 +8°C° 0 mm 3 m/s 772 mmHg 80%
    01:00 +7°C° 0 mm 3 m/s 772 mmHg 81%
    02:00 +7°C° 0 mm 3 m/s 773 mmHg 83%
    03:00 +7°C° 0 mm 3 m/s 773 mmHg 85%
    04:00 +7°C° 0 mm 3 m/s 774 mmHg 85%
    05:00 +5°C° 0 mm 3 m/s 774 mmHg 86%
    06:00 +5°C° 0 mm 3 m/s 774 mmHg 87%
    07:00 +8°C° 0 mm 3 m/s 775 mmHg 80%
    08:00 +9°C° 0 mm 3 m/s 775 mmHg 72%
    09:00 +11°C° 0 mm 3 m/s 776 mmHg 65%
    10:00 +12°C° 0 mm 3 m/s 776 mmHg 57%
    11:00 +13°C° 0 mm 3 m/s 776 mmHg 50%
    12:00 +14°C° 0 mm 3 m/s 776 mmHg 42%
    13:00 +14°C° 0 mm 3 m/s 776 mmHg 40%
    14:00 +16°C° 0 mm 3 m/s 776 mmHg 38%
    15:00 +16°C° 0 mm 3 m/s 776 mmHg 36%
    16:00 +15°C° 0 mm 2 m/s 776 mmHg 40%
    17:00 +13°C° 0 mm 2 m/s 776 mmHg 45%
    18:00 +12°C° 0 mm 1 m/s 776 mmHg 49%
    19:00 +12°C° 0 mm 1 m/s 776 mmHg 52%
    20:00 +11°C° 0 mm 1 m/s 777 mmHg 55%
    21:00 +10°C° 0 mm 1 m/s 777 mmHg 58%
    22:00 +10°C° 0 mm 1 m/s 777 mmHg 60%
    23:00 +10°C° 0 mm 1 m/s 777 mmHg 63%

    Demain, 25 Septembre, Mardi

    Heure Température Précipitation Vent Pression Humidité
    00:00 +9°C° 0 mm 1 m/s 777 mmHg 65%
    01:00 +8°C° 0 mm 0 m/s 777 mmHg 67%
    02:00 +8°C° 0 mm 0 m/s 777 mmHg 69%
    03:00 +8°C° 0 mm 0 m/s 777 mmHg 70%
    04:00 +8°C° 0 mm 0 m/s 777 mmHg 71%
    05:00 +7°C° 0 mm 0 m/s 777 mmHg 72%
    06:00 +8°C° 0 mm 1 m/s 777 mmHg 72%
    07:00 +10°C° 0 mm 1 m/s 777 mmHg 65%
    08:00 +12°C° 0 mm 1 m/s 777 mmHg 58%
    09:00 +14°C° 0 mm 2 m/s 777 mmHg 51%
    10:00 +15°C° 0 mm 2 m/s 777 mmHg 48%
    11:00 +16°C° 0 mm 3 m/s 776 mmHg 44%
    12:00 +17°C° 0 mm 4 m/s 776 mmHg 41%
    13:00 +17°C° 0 mm 4 m/s 776 mmHg 42%
    14:00 +17°C° 0 mm 4 m/s 775 mmHg 42%
    15:00 +17°C° 0 mm 4 m/s 775 mmHg 43%
    16:00 +15°C° 0 mm 4 m/s 774 mmHg 49%
    17:00 +14°C° 0 mm 3 m/s 774 mmHg 55%
    18:00 +13°C° 0 mm 3 m/s 774 mmHg 61%
    19:00 +12°C° 0 mm 3 m/s 774 mmHg 63%
    20:00 +12°C° 0 mm 3 m/s 774 mmHg 66%
    21:00 +11°C° 0 mm 3 m/s 775 mmHg 69%
    22:00 +11°C° 0 mm 3 m/s 774 mmHg 69%
    23:00 +11°C° 0 mm 3 m/s 774 mmHg 70%

    Après-demain, 26 Septembre, Mercredi

    Heure Température Précipitation Vent Pression Humidité
    00:00 +10°C° 0 mm 3 m/s 774 mmHg 70%
    01:00 +10°C° 0 mm 3 m/s 774 mmHg 71%
    02:00 +10°C° 0 mm 3 m/s 773 mmHg 71%
    03:00 +10°C° 0 mm 3 m/s 773 mmHg 72%
    04:00 +10°C° 0 mm 3 m/s 773 mmHg 72%
    05:00 +10°C° 0 mm 3 m/s 773 mmHg 72%
    06:00 +10°C° 0 mm 4 m/s 773 mmHg 71%
    07:00 +11°C° 0 mm 4 m/s 773 mmHg 66%
    08:00 +13°C° 0 mm 4 m/s 773 mmHg 60%
    09:00 +14°C° 0 mm 5 m/s 773 mmHg 54%
    10:00 +16°C° 0 mm 5 m/s 772 mmHg 50%
    11:00 +17°C° 0 mm 5 m/s 772 mmHg 46%
    12:00 +20°C° 0 mm 5 m/s 772 mmHg 42%
    13:00 +20°C° 0 mm 5 m/s 772 mmHg 42%
    14:00 +21°C° 0 mm 4 m/s 772 mmHg 42%
    15:00 +22°C° 0 mm 4 m/s 771 mmHg 42%
    16:00 +20°C° 0 mm 4 m/s 771 mmHg 47%
    17:00 +19°C° 0 mm 3 m/s 771 mmHg 51%
    18:00 +18°C° 0 mm 3 m/s 771 mmHg 56%
    19:00 +17°C° 0 mm 3 m/s 771 mmHg 58%
    20:00 +16°C° 0 mm 3 m/s 771 mmHg 61%
    21:00 +16°C° 0 mm 3 m/s 771 mmHg 63%
    22:00 +15°C° 0 mm 2 m/s 771 mmHg 65%
    23:00 +15°C° 0 mm 2 m/s 771 mmHg 67%

    27 Septembre, Jeudi

    Heure Température Précipitation Vent Pression Humidité
    00:00 +14°C° 0 mm 2 m/s 771 mmHg 69%
    01:00 +14°C° 0 mm 2 m/s 771 mmHg 70%
    02:00 +14°C° 0 mm 2 m/s 770 mmHg 71%
    03:00 +13°C° 0 mm 2 m/s 770 mmHg 72%
    04:00 +13°C° 0 mm 2 m/s 770 mmHg 72%
    05:00 +13°C° 0 mm 2 m/s 769 mmHg 72%
    06:00 +12°C° 0 mm 2 m/s 769 mmHg 72%
    07:00 +13°C° 0 mm 3 m/s 769 mmHg 65%
    08:00 +16°C° 0 mm 3 m/s 769 mmHg 59%
    09:00 +17°C° 0 mm 3 m/s 769 mmHg 53%
    10:00 +19°C° 0 mm 4 m/s 768 mmHg 47%
    11:00 +20°C° 0 mm 4 m/s 768 mmHg 42%
    12:00 +22°C° 0 mm 4 m/s 768 mmHg 37%
    13:00 +22°C° 0 mm 4 m/s 768 mmHg 37%
    14:00 +22°C° 0 mm 4 m/s 767 mmHg 36%
    15:00 +22°C° 0 mm 3 m/s 767 mmHg 36%
    16:00 +21°C° 0 mm 3 m/s 767 mmHg 41%
    17:00 +19°C° 0 mm 2 m/s 767 mmHg 46%
    18:00 +18°C° 0 mm 2 m/s 767 mmHg 51%
    19:00 +17°C° 0 mm 2 m/s 767 mmHg 54%
    20:00 +16°C° 0 mm 2 m/s 767 mmHg 57%
    21:00 +15°C° 0 mm 2 m/s 767 mmHg 60%
    22:00 +14°C° 0 mm 3 m/s 767 mmHg 65%
    23:00 +13°C° 0 mm 3 m/s 767 mmHg 70%

    28 Septembre, Vendredi

    Heure Température Précipitation Vent Pression Humidité
    00:00 +12°C° 0 mm 3 m/s 768 mmHg 74%
    01:00 +12°C° 0 mm 3 m/s 768 mmHg 80%
    02:00 +12°C° 0 mm 3 m/s 767 mmHg 85%
    03:00 +12°C° 0 mm 3 m/s 767 mmHg 91%
    04:00 +12°C° 0 mm 3 m/s 768 mmHg 90%
    05:00 +12°C° 0 mm 4 m/s 768 mmHg 90%
    06:00 +12°C° 0 mm 4 m/s 768 mmHg 90%
    07:00 +13°C° 0 mm 4 m/s 768 mmHg 85%
    08:00 +13°C° 0 mm 5 m/s 769 mmHg 81%
    09:00 +14°C° 0 mm 5 m/s 769 mmHg 76%
    10:00 +14°C° 0 mm 5 m/s 769 mmHg 72%
    11:00 +15°C° 0 mm 6 m/s 770 mmHg 68%
    12:00 +15°C° 0 mm 6 m/s 770 mmHg 64%
    13:00 +15°C° 0 mm 6 m/s 770 mmHg 62%
    14:00 +15°C° 0 mm 6 m/s 770 mmHg 60%
    15:00 +15°C° 0 mm 6 m/s 770 mmHg 58%
    16:00 +14°C° 0 mm 5 m/s 770 mmHg 61%
    17:00 +13°C° 0 mm 5 m/s 770 mmHg 64%
    18:00 +12°C° 0 mm 4 m/s 770 mmHg 67%
    19:00 +11°C° 0 mm 4 m/s 771 mmHg 70%
    20:00 +10°C° 0 mm 4 m/s 771 mmHg 73%
    21:00 +10°C° 0 mm 3 m/s 772 mmHg 77%
    22:00 +9°C° 0 mm 3 m/s 772 mmHg 78%
    23:00 +9°C° 0 mm 3 m/s 771 mmHg 80%

    29 Septembre, Samedi

    Heure Température Précipitation Vent Pression Humidité
    00:00 +9°C° 0 mm 3 m/s 771 mmHg 82%
    01:00 +9°C° 0 mm 3 m/s 771 mmHg 83%
    02:00 +9°C° 0 mm 3 m/s 771 mmHg 83%
    03:00 +9°C° 0 mm 3 m/s 771 mmHg 84%
    04:00 +9°C° 0 mm 3 m/s 771 mmHg 84%
    05:00 +9°C° 0 mm 3 m/s 770 mmHg 83%
    06:00 +9°C° 0 mm 3 m/s 770 mmHg 83%
    07:00 +10°C° 0 mm 3 m/s 770 mmHg 76%
    08:00 +12°C° 0 mm 4 m/s 770 mmHg 68%
    09:00 +13°C° 0 mm 4 m/s 770 mmHg 61%
    10:00 +14°C° 0 mm 4 m/s 770 mmHg 58%
    11:00 +15°C° 0 mm 4 m/s 769 mmHg 55%
    12:00 +15°C° 0 mm 4 m/s 769 mmHg 53%
    13:00 +15°C° 0 mm 4 m/s 768 mmHg 52%
    14:00 +17°C° 0 mm 4 m/s 767 mmHg 52%
    15:00 +17°C° 0 mm 4 m/s 767 mmHg 51%
    16:00 +14°C° 0 mm 4 m/s 767 mmHg 56%
    17:00 +13°C° 0 mm 3 m/s 766 mmHg 61%
    18:00 +12°C° 0 mm 3 m/s 766 mmHg 66%
    19:00 +11°C° 0 mm 3 m/s 766 mmHg 69%
    20:00 +12°C° 0 mm 2 m/s 766 mmHg 71%
    21:00 +10°C° 0 mm 2 m/s 766 mmHg 73%
    22:00 +10°C° 0 mm 2 m/s 765 mmHg 75%
    23:00 +9°C° 0 mm 2 m/s 765 mmHg 77%
    Voir plus